Simultaneous Nadir Overpasses (SNOs) Predictions

Prediction of SNOs between METOP-A and TERRA Satellite Orbit:

Table of predicted SNOs for the next 14.0 days since TLE Epoch: 12/30/2017
Index Date (METOP-A) Time (METOP-A) Lat,Lon (METOP-A) SZA (METOP-A ) Date (TERRA) Time (TERRA) Lat,Lon (TERRA) SZA (TERRA ) Distance(km) Time Diff (sec)
1 12/30/2017 21:23:25 81.38, -92.37 107.14 12/30/2017 21:24:36 81.37, -92.43 107.16 1.36 71
2 12/30/2017 22:14:05 -81.38, 75.38 72.82 12/30/2017 22:14:02 -81.39, 75.51 72.80 2.19 3
3 01/02/2018 16:57:44 81.38, -25.95 106.88 01/02/2018 16:58:51 81.38, -25.80 106.92 2.58 67
4 01/02/2018 17:48:24 -81.38, 141.81 73.08 01/02/2018 17:48:18 -81.38, 141.78 73.09 0.86 6
5 01/05/2018 12:32:02 81.38, 40.85 106.59 01/05/2018 12:33:06 81.39, 40.76 106.62 1.45 64
6 01/05/2018 13:22:43 -81.38,-151.77 73.41 01/05/2018 13:22:33 -81.39,-151.65 73.40 2.15 10
7 01/08/2018 08:06:20 81.38, 107.23 106.21 01/08/2018 08:07:20 81.39, 107.25 106.24 0.91 60
8 01/08/2018 08:57:00 -81.39, -84.99 73.75 01/08/2018 08:56:47 -81.39, -85.14 73.77 2.55 13
9 01/11/2018 03:40:39 81.38, 173.59 105.76 01/11/2018 03:41:35 81.39, 173.67 105.80 1.52 56




NCC Satellite Simultaneous Nadir Overpasses (SNOs) Prediction Service
